Location: Ar Ranvel
(48.3000°N, 4.8833°W)
Time: 08:58:10
(UTC+00:00)

USA 267 - Pass Details

Date: 16 June 2021
Orbit: 1102 x 1106 km, 123.0° (Epoch: 03 August)

Event Time Altitude Azimuth Distance (km) Brightness Sun altitude
Exits shadow 22:12:27 - 101° (E) 3,845 5.7 -12.8°
Reaches altitude 10° 22:14:47 10° 98° (E) 2,960 5.2 -13.0°
Maximum altitude 22:21:08 58° 22° (NNE) 1,278 3.8 -13.5°
Drops below altitude 10° 22:27:32 10° 305° (NW) 2,969 6.5 -14.0°
Sets 22:30:03 0° 302° (WNW) 3,929 7.2 -14.2°
